This demonstration page uses our WeatherBlox Daily Observations layout. Learn more.

Left ArrowRight Arrow

36.17497, -115.13722

Hourly Observations for August 18, 2020

Temp ( °F °C ) Dew Point ( °F °C ) Humidity (%) Winds ( mph kmh ) Pressure ( in mb ) Visibility ( mi km ) Precip ( " mm )
12:53 am 00:53 Clear 96 35.6 37 2.8 13 13 N N/A 29.85 1011 10 16 N/A
1:53 am 01:53 Clear 93 33.9 38 3.3 14 14 N 6 9 29.85 1011 10 16 N/A
2:53 am 02:53 Clear 95 35 35 1.7 12 12 N 3 6 29.86 1011 10 16 N/A
3:53 am 03:53 Clear 91 32.8 35 1.7 14 14 NW 7 11 29.87 1012 10 16 N/A
4:53 am 04:53 Clear 90 32.2 37 2.8 15 15 W 8 13 29.88 1012 10 16 N/A
5:53 am 05:53 Clear 90 32.2 37 2.8 15 15 W 7 11 29.90 1012 10 16 N/A
6:53 am 06:53 Sunny 89 31.7 40 4.4 18 18 WNW 8 13 29.92 1013 10 16 N/A
7:53 am 07:53 Sunny 95 35 39 3.9 14 14 N 5 7 29.94 1014 10 16 N/A
8:53 am 08:53 Sunny 97 36.1 43 6.1 16 16 N N/A 29.95 1014 10 16 N/A
9:53 am 09:53 Sunny 102 38.9 45 7.2 14 14 N N/A 29.95 1014 10 16 N/A
10:53 am 10:53 Sunny 105 40.6 46 7.8 14 14 VRB 6 9 29.94 1014 10 16 N/A
11:53 am 11:53 Sunny 106 41.1 46 7.8 13 13 SE 6 9 29.92 1013 10 16 N/A
12:53 pm 12:53 Sunny 110 43.3 47 8.3 12 12 ENE 5 7 29.89 1012 10 16 N/A
1:53 pm 13:53 Sunny 111 43.9 48 8.9 12 12 N N/A 29.87 1011 10 16 N/A
2:53 pm 14:53 Sunny 113 45 45 7.2 10 10 E 9 15 29.83 1010 10 16 N/A
3:53 pm 15:53 Sunny 112 44.4 42 5.6 9 9 VRB 3 6 29.80 1009 10 16 N/A
4:53 pm 16:53 Sunny 112 44.4 42 5.6 9 9 SE 7 11 29.78 1009 10 16 N/A
5:53 pm 17:53 Sunny 111 43.9 41 5 9 9 ESE 5 7 29.78 1008 10 16 N/A
6:53 pm 18:53 Sunny 108 42.2 45 7.2 12 12 WSW 9 15 29.79 1009 10 16 N/A
7:53 pm 19:53 Clear 106 41.1 44 6.7 12 12 S 8 13 29.78 1009 10 16 N/A
8:53 pm 20:53 Clear 104 40 47 8.3 15 15 S 14 22 29.80 1009 10 16 N/A
9:53 pm 21:53 Clear 101 38.3 47 8.3 16 16 SSW 18 30 29.81 1010 10 16 N/A
10:53 pm 22:53 Clear 100 37.8 47 8.3 16 16 S 12 19 29.80 1009 10 16 N/A
11:53 pm 23:53 Clear 97 36.1 48 8.9 19 19 WNW 9 15 29.81 1009 10 16 N/A

Powered by AerisWeather